Location: ????????
(55.6333°N, 37.7000°E)
Time: 05:03:21
(UTC+00:00)

Meteor 1-14 Rocket - Pass Details

Date: 19 May 2025
Orbit: 833 x 917 km, 81.3° (Epoch: 19 June)

Event Time Altitude Azimuth Distance (km) Brightness Sun altitude
Rises 19:28:16 0° 344° (NNW) 3,406 9.2 -10.4°
Reaches altitude 10° 19:30:40 10° 343° (NNW) 2,474 8.1 -10.6°
Maximum altitude 19:36:15 73° 260° (W) 895 4.4 -10.9°
Enters shadow 19:41:27 12° 177° (S) 2,329 5.9 -11.2°
